User: anonymous   Login
Location: Unspecified
(0.0000°N, 0.0000°E)
Time: 22:37:41
(UTC+01:00)
Language:

Cosmos 2082 Rocket - Orbit

View from above orbital plane
View from above orbital plane
View from above satellite
View from above satellite

Ground track
Ground track

The orbit data is extracted from the following two-line orbital elements,

1 20625U 90046B   17083.91964697 +.00000299 +00000-0 +18013-3 0  9990
2 20625 071.0001 326.0000 0016111 239.0109 120.9431 14.14612193385661
Epoch (UTC): 24 March 2017 22:04:17
Eccentricity: 0.0016111
inclination: 71.0001°
perigee height: 832 km
apogee height: 855 km
right ascension of ascending node: 326.0000°
argument of perigee: 239.0109°
revolutions per day: 14.14612193
mean anomaly at epoch: 120.9431°
orbit number at epoch: 38566

The dashed part of the orbit path shows where the satellite is in the earth's shadow,  

DLR